VOMLVCBI

Guest
Details From VOML - Mangalore
To VCBI - Bandaranaike Intl Colombo
Flight Number -
Tags Generated
Created
Modified
Stats Distance 457 nm / 846 km
Max Altitude 0 ft / 0 m
Waypoints 3
Social Downloads 0
Likes 0
Share VATSIM

Download

Looking for another format? Having issues loading an existing format? Contact us
Advertisement - Login to hide

Notes

Generated

Route

VOML KAT VCBI

ID Type Via Altitude Latitude Longitude Leg Dist Tot Dist Heading (true) Name
O VOML APT - 0 ft / 0 m 12.96116˚ 74.88262˚ - 0 nm - -
KAT VOR - 0 ft / 0 m 7.16127˚ 79.86850˚ 456 nm 456 nm 139° / 140° BANDARANAIKE VOR-DME
O VCBI APT - 0 ft / 0 m 7.16874˚ 79.87491˚ 0 nm 456 nm 40° / 40° -

Altitude Profile

Advertisement - Login to hide

Weather


0- 5 10 15 20 25 30 35+ Temperature / ° C

Clouds and Precipitation
Forecast for 2018-05-21 00:00 UTC. Updated 2 hours ago

Ground ~20,000 ft ~40,000 ft Winds

VOML

Details ICAO VOML (IXE)
Name MANGALORE
Region India
Timezone Asia/Kolkata (UTC+5.5)
Stats Elevation 337 ft / 103 m (AMSL)
Location 12.957941° 74.888702°
Runways 2
Magnetic Variation 1.158° W

METAR

VOML 210130Z 10003KT 5000 BR FEW015 SCT080 25/23 Q1008 NOSIG

Decode

TAF

TAF VOML 202300Z 2100/2206 09005KT 6000 SCT015 TEMPO 2100/2103 3000 BR SCT010 FEW025CB SCT080 BECMG 2107/2108 27010KT TEMPO 2109/2115 SCT015 FEW025CB BECMG 2118/2119 09005KT TEMPO 2200/2203 3000 BR SCT010

Decode

Departure Runways

ID Width Length Bearing (true) Bearing (mag) Surface Threshold Offset Overrun Length
06 151 ft / 46 m 8,054 ft / 2,455 m 58.13° 59.29° Concrete 394 ft / 120 m 0 ft / 0 m
09 151 ft / 46 m 5,321 ft / 1,622 m 89.10° 90.26° Asphalt 0 ft / 0 m 0 ft / 0 m
24 151 ft / 46 m 8,054 ft / 2,455 m 238.13° 239.29° Concrete 0 ft / 0 m 0 ft / 0 m
27 151 ft / 46 m 5,321 ft / 1,622 m 269.11° 270.27° Asphalt 0 ft / 0 m 0 ft / 0 m

VCBI

Details ICAO VCBI (CMB)
Name BANDARANAIKE INTL COLOMBO
Region Sri Lanka
Timezone Asia/Colombo (UTC+5.5)
Stats Elevation 30 ft / 9 m (AMSL)
Location 7.180754° 79.884118°
Runways 1
Magnetic Variation 2.037° W

METAR

VCBI 210110Z 25010KT 210V280 9999 BKN014 FEW016CB 28/23 Q1008 NOSIG RMK N/NW

Decode

TAF

Not found

Destination Runways

ID Width Length Bearing (true) Bearing (mag) Surface Threshold Offset Overrun Length
04 148 ft / 45 m 11,018 ft / 3,358 m 37.25° 39.29° Asphalt 0 ft / 0 m 215 ft / 66 m
22 148 ft / 45 m 11,018 ft / 3,358 m 217.25° 219.29° Asphalt 0 ft / 0 m 300 ft / 91 m

Approach Navaids

Runway Type Ident Frequency Range Bearing (true) Bearing (mag) Slope Elevation
04 Localiser IKW 109.90 MHz 18 nm / 33 km 36.30° 38.34° - 27 ft / 8 m (AMSL)
04 Glidescope IKW 109.90 MHz 10 nm / 19 km 37.25° 39.28° 3.00° 24 ft / 7 m (AMSL)
04 DME IKW 109.90 MHz 18 nm / 33 km - - - 39 ft / 12 m (AMSL)
22 Localiser IKA 110.30 MHz 18 nm / 33 km 218.17° 220.20° - 25 ft / 8 m (AMSL)
22 Glidescope IKA 110.30 MHz 10 nm / 19 km 217.25° 219.28° 3.00° 24 ft / 7 m (AMSL)
22 DME IKA 110.30 MHz 18 nm / 33 km - - - 24 ft / 7 m (AMSL)

Popular Alternatives